Regional Weather Roundup
Issued by NWS

Home | Current Version | Previous Version | Text Only | Print | Product List | Glossary Off
Versions: 1 2 3 4 5 6 7 8 9 10 11 12 13 14 15 16 17 18 19 20 21 22 23 24 25 26 27 28 29 30 31 32 33 34 35 36 37 38 39 40 41 42 43 44 45 46 47 48 49 50

477
ASUS44 KLIX 050405
RWRLA
LOUISIANA WEATHER ROUNDUP
NATIONAL WEATHER SERVICE NEW ORLEANS LA
1000 PM CST WED MAR 04 2015

NOTE: "FAIR" INDICATES FEW OR NO CLOUDS BELOW 12,000 FEET WITH NO
      SIGNIFICANT WEATHER AND/OR OBSTRUCTIONS TO VISIBILITY.
      SKY/WX - SKY CONDITION AND SIGNIFICANT WEATHER.
      TMP - AIR TEMPERATURE.    DP   - DEWPOINT TEMPERATURE.
      RH  - RELATIVE HUMIDITY.  PRES - PRESSURE.
      HX  - HEAT INDEX.         WCI  - WIND CHILL INDEX.

*  THESE STATIONS ARE NOT NWS OR FAA STATIONS AND ARE NOT UNDER
   NWS QUALITY CONTROL.

LAZ040-048-061>063-065-066-069-050500-
SOUTHEAST LOUISIANA

CITY           SKY/WX    TMP DP  RH WIND       PRES   REMARKS
N.O. AUDUBON   NOT AVBL
N.O. INTL ARPT PTCLDY    71  67  87 S7        29.94R
N.O. LAKEFRONT PTCLDY    74  69  85 S12       29.94S
SLIDELL        CLOUDY    70  69  97 S5        29.94R
BATON ROUGE    CLOUDY    73  69  87 S14       29.91S
BOOTHVILLE     CLEAR     71  70  96 S7        29.96S
BELLE CHASSE   MOCLDY    70  67  90 S5        29.94R FOG
BOGALUSA*        N/A     74  67  81 S8        29.94S
GALLIANO*      CLOUDY    75  71  86 S13       29.96R
NEW ROADS*     CLOUDY    73  69  88 S7        29.92R
GONZALES*      LGT RAIN  73  73 100 S5        29.92S
HAMMOND*       PTCLDY    72  66  83 S8        29.94S
HOUMA*         CLEAR     72  70  93 S5        29.94S
PORT FOURCHON* CLOUDY    72  70  94 SW5       29.99R FOG

$$

LAZ041-044-053-054-050500-
SOUTHWEST LOUISIANA

CITY           SKY/WX    TMP DP  RH WIND       PRES   REMARKS
LAKE CHARLES   CLOUDY    71  69  93 S6        29.90R
LAFAYETTE      CLOUDY    72  69  90 S10       29.92R
PATTERSON      MOCLDY    72  70  94 S10       29.93S
SALT POINT       N/A     68  67  96 S6        29.91R
NEW IBERIA     CLOUDY    71  69  93 SW7       29.92S
CHENAULT AIRPK CLOUDY    70  69  98 S6        29.91R FOG

$$

LAZ027-028-050500-
CENTRAL LOUISIANA

CITY           SKY/WX    TMP DP  RH WIND       PRES   REMARKS
FORT POLK      NOT AVBL
ALEXANDRIA INT CLOUDY    50  46  86 N14G22    29.95R
ALEXANDRIA     LGT RAIN  49  45  86 NE8       29.96R

$$

LAZ001-002-050500-
NORTHWEST LOUISIANA

CITY           SKY/WX    TMP DP  RH WIND       PRES   REMARKS
SHREVEPORT     RAIN      39  37  92 N18       30.11R FOG     WCI  30
BARKSDALE AFB  LGT RAIN  38  36  93 N15G24    30.11R WCI  29
DTN SHREVEPORT LGT RAIN  38  34  85 N18G28    30.11R WCI  28

$$

LAZ014-016-050500-
NORTHEAST LOUISIANA

CITY           SKY/WX    TMP DP  RH WIND       PRES   REMARKS
MONROE         LGT RAIN  37  35  92 N16G25    30.08R FOG     WCI  28
TALLULAH       LGT RAIN  38  35  89 N20G26    30.04R WCI  28

$$




USA.gov is the U.S. government's official web portal to all federal, state and local government web resources and services.